Showing default

RESURS O1, 23342

Orbit data source: Space-Track

RESURS O1, 23342 is a payload satellite owned by Priroda (CIS) in SSO that was launched on Fri, 04 Nov 1994 UTC via a ZENIT-2 launch vehicle from the Tyuratam Missile And Space Complex (TTMTR). Payload-class satellites include a variety of spacecraft equipped with specific instruments for various scientific and technological missions. These include communications satellites like Starlink; space stations such as the ISS; scientific satellites like the Hubble; Earth observation satellites from companies like Planet Labs, Umbra, and HawkEye 360; GPS; miniature CubeSats for education and research; and military/defense satellites.

Loading next visibility...
Identifier
23342, 1994-074A
Orbit
SSO
Last TLE update
15 hours ago
Origin
Manufacturer
VNIIEM
Mission
Civil Imaging
Bus & Motor
RESURS-O, Unknown motor
Mass
1,900 kg wet, 1,900 kg dry
Launch date (UTC)
1994-11-04 (31 years ago)
Launch vehicle
ZENIT-2
Launch site
Tyuratam Missile And Space Complex (TTMTR)
Object type
Payload
Rocket body
Debris
Shape & HBR
Cyl + 2 Pan, 11.6 m
Radar Cross Section
11.656 m², Large (>1 m²)

Expand to show TLE details & history

TLE from 15 hours ago
0 RESURS O1
1 23342U 94074A   25128.63810231  .00001540  00000-0  18994-3 0  9994
2 23342  97.6930 156.8989 0001373  69.2981 290.8381 14.84249957643901
Epoch: 2025-05-08T15:18Z
Definitive object data (Epoch: 2025-05-08T15:18:52.039Z)
Latitude
-0.00002°
Longitude
60.47635°
Altitude
618.633 km
Speed
7.55 km/s
True Right ascension
10h 27m 35s
True Declination
0° 00' 00"
Sunlit
Object was in daylight at TLE epoch
Visualization TLE readout
Latitude
79.60826°
Longitude
13.97156°
Altitude
628.329 km
Speed
7.552 km/s
Apparent Right ascension
03h 16m 11s
Apparent Declination
27° 29' 32"
Sunlit
Object is in daylight
Visualization observer readout
Local Sidereal Time
14:23:41
Azimuth
347.498° N
Elevation
-21.493°
Doppler factor
1
Orbital elements
Apogee altitude
613.927 km
Perigee altitude
612.007 km
Semi-major axis
6,991.104 km
Eccentricity
0.0001373
Inclination
97.693°
RAAN
156.8989°
Arg. of periapsis
69.2981°
True anomaly
290.82339°
Mean anomaly
290.8381°
Eccentric anomaly
290.83075°
Mean motion
3.713 °/min
BSTAR
0.00018994
Orbital period
96.96 mins
Loading maneuver chart data...
Loading SW <> Apogee altitude chart data...

RESURS O1 Visibility forecast

Observer location: undefined°, undefined°

Span
Click to sort rows by Start time (UTC) header in descending order
Start Az.
Max El. time (UTC)
Max El. Az.
Max El.
End time (UTC)
End Az.
8 mins2025-05-09 14:31:53.654Z18.892° NNE2025-05-09 14:35:53.654Z119.61° SE42.33°2025-05-09 14:39:53.654Z184.119° SSW
6 mins2025-05-10 01:25:53.654Z137.518° SSE2025-05-10 01:28:53.654Z64.998° ENE34.737°2025-05-10 01:31:53.654Z5.62° NNE
|